STARLINK-1132, 45044

Orbit data source: Space-Track

STARLINK-1132, 45044 is a payload satellite owned by SpaceX/Seattle (US) in LEO that was launched on Wed, 29 Jan 2020 UTC via an FALCON 9 launch vehicle from the Air Force Eastern Test Range (AFETR). Payload-class satellites include a variety of spacecraft equipped with specific instruments for various scientific and technological missions. These include communications satellites like Starlink; space stations such as the ISS; scientific satellites like the Hubble; Earth observation satellites from companies like Planet Labs, Umbra, and HawkEye 360; GPS; miniature CubeSats for education and research; and military/defense satellites.

Loading next visibility...
Identifier
45044, 2020-006A
Orbit
LEO
Last TLE update
14 hours ago
Origin
Manufacturer
SpaceX/Seattle
Mission
Operational Commercial Communications
Bus & Motor
STARLINK, Unknown motor
Mass
260 kg wet, ~248 kg dry
Launch date (UTC)
2020-01-29 (5 years ago)
Launch vehicle
FALCON 9
Launch site
Air Force Eastern Test Range (AFETR)
Object type
Payload
Rocket body
Debris
Shape & HBR
Box + 1 Pan, 8.86 m
Radar Cross Section
13.562 m², Large (>1 m²)

Expand to show TLE details & history

TLE from 14 hours ago
0 STARLINK-1132
1 45044U 20006A   25181.66779644  .00000923  00000-0  80846-4 0  9995
2 45044  53.0559 317.9883 0001235  94.5755 265.5375 15.06388226298756
Epoch: 2025-06-30T16:01Z
TLE epoch observation values (Epoch: 2025-06-30T16:01:37.612Z)
Latitude
-0.00002°
Longitude
158.60726°
Altitude
548.194 km
Speed
7.589 km/s
True Right ascension
21h 11m 57s
True Declination
0° 00' 00"
Sunlit
Object was in full shadow at epoch
Visualization orbit readout
Latitude
-44.82167°
Longitude
24.03514°
Altitude
563.098 km
Speed
7.579 km/s
Apparent Right ascension
08h 51m 36s
Apparent Declination
-55° 10' 30"
Sunlit
Object is in daylight
Visualization observer readout
Local Sidereal Time
17:27:42
Azimuth
228.041° WSW
Elevation
-53.373°
Doppler factor
1
Orbital elements
Apogee altitude
548.373 km
Perigee altitude
546.663 km
Semi-major axis
6,925.655 km
Eccentricity
0.00012
Inclination
53.0559°
RAAN
317.9883°
Arg. of periapsis
94.5755°
True anomaly
Unknown
Mean anomaly
265.5375°
Eccentric anomaly
Unknown
Mean motion
3.76575 °/min
Orbital period
95.6 mins
BSTAR
0.000080846
Loading maneuver chart data...
Loading SW <> Apogee altitude chart data...

STARLINK-1132 Visibility forecast

Observer location: undefined°, undefined°

Span
Click to sort rows by Start time (UTC) header in descending order
Start Az.
Max El. time (UTC)
Max El. Az.
Max El.
End time (UTC)
End Az.
6 mins2025-07-01 11:18:00.756Z202.782° SW2025-07-01 11:21:00.756Z133.281° SE35.734°2025-07-01 11:24:00.756Z65.48° ENE
6 mins2025-07-01 12:58:00.756Z277.673° WNW2025-07-01 13:01:00.756Z342.937° N26.329°2025-07-01 13:04:00.756Z32.772° NE
6 mins2025-07-01 18:00:00.756Z327.745° NNW2025-07-01 18:02:00.756Z12.837° NNE35.84°2025-07-01 18:06:00.756Z108.462° ESE
5 mins2025-07-01 19:40:00.756Z266.393° W2025-07-01 19:42:00.756Z224.043° SW21.938°2025-07-01 19:45:00.756Z176.734° S
|